Terminal Aerodrome Forecast
Issued by NWS

Home | Current Version | Previous Version | Text Only | Print | Product List | Glossary On
Versions: 1 2 3 4 5 6 7 8 9 10 11 12 13 14 15 16 17 18 19 20 21 22 23 24 25 26 27 28
700
FTUS41 KOKX 182044 AAC
TAFHPN
TAF AMD
KHPN 182044Z 1821/1918 35008KT P6SM SCT008 OVC012
      TEMPO 1821/1822 5SM BR BKN008 OVC012
     FM190000 34004KT P6SM BKN020 OVC030
     FM190700 31003KT P6SM SCT025 BKN035
     FM191200 31006KT P6SM FEW040 SCT100
      AMD NOT SKED=

USA.gov is the U.S. government's official web portal to all federal, state and local government web resources and services.